Find MisrSat 1

NORAD ID: 31117 Int'l Des: 2007-012 Owner: NARSS Country: EG operational
LEOCIRCULARRETROGRADESSO

实时位置

正在加载3D地球...

关于 MisrSat 1

正在加载描述...

即将过境

Passes for default location (London). Set your location on the main map for personalized predictions.

高度历史

Loading altitude history...

两行轨道根数

1 31117U 07012A 26105.77404825 .00000592 00000-0 86048-4 0 9990
2 31117 98.0546 61.7857 0003789 319.2920 40.8007 14.79626047 20483
Epoch: Apr 15, 2026 • Age: 8 hours

当前状态

高度 656.5 km
速度 7.53 km/s
星下点 -79.37°S, 128.34°W
发射日期 Apr 17, 2007
运行时间 18.9 years
类型 other

技术详情

分类 Payload
质量 165.00 kg
干质量 165.00 kg
总质量 165.00 kg
长度 0.50 m
直径 0.50 m
跨度 2.00 m
形状 Box + 4 Pan + Ant
制造商 YUZHUA
平台类型 Egyptsat
阶段状态 In Orbit
所有者/国家 NARSS/EG

Most Searched